This is the latest recevied weather packets stored in our database for station/object K5OBH. If no packets are shown the sender has not sent any weather packets the latest 10 day(s).
| Time | Temp. | Humidity | Pressure | Rain* | Wind** | Luminosity | Snow |
|---|---|---|---|---|---|---|---|
| 1777825099 | 23.89° C | 44% | 1017.2 hPa | 0 mm | - | 625 W/m² | - |
| 1777824795 | 23.89° C | 45% | 1017.4 hPa | 0 mm | - | 612 W/m² | - |
| 1777824492 | 23.89° C | 44% | 1017.4 hPa | 0 mm | - | 601 W/m² | - |
| 1777824188 | 23.33° C | 45% | 1017.5 hPa | 0 mm | - | 588 W/m² | - |
| 1777823884 | 23.33° C | 46% | 1017.6 hPa | 0 mm | - | 576 W/m² | - |
| 1777823582 | 22.22° C | 47% | 1017.5 hPa | 0 mm | - | 563 W/m² | - |
| 1777823279 | 22.22° C | 46% | 1017.4 hPa | 0 mm | - | 552 W/m² | - |
| 1777822976 | 22.22° C | 48% | 1017.6 hPa | 0 mm | - | 537 W/m² | - |
| 1777822674 | 21.67° C | 50% | 1017.6 hPa | 0 mm | - | 522 W/m² | - |
| 1777822372 | 21.67° C | 50% | 1017.4 hPa | 0 mm | - | 511 W/m² | - |
| 1777822069 | 21.11° C | 52% | 1017.6 hPa | 0 mm | - | 497 W/m² | - |
| 1777821767 | 20.56° C | 52% | 1017.4 hPa | 0 mm | - | 481 W/m² | - |
| 1777821464 | 20° C | 53% | 1017.5 hPa | 0 mm | - | 465 W/m² | - |
| 1777821162 | 19.44° C | 54% | 1017.7 hPa | 0 mm | - | 449 W/m² | - |
| 1777820858 | 19.44° C | 55% | 1017.4 hPa | 0 mm | - | 434 W/m² | - |
| 1777820554 | 19.44° C | 55% | 1017.6 hPa | 0 mm | - | 419 W/m² | - |
| 1777820251 | 19.44° C | 57% | 1017.3 hPa | 0 mm | - | 403 W/m² | - |
| 1777819949 | 18.89° C | 56% | 1017.5 hPa | 0 mm | - | 389 W/m² | - |
| 1777819646 | 18.33° C | 58% | 1017.4 hPa | 0 mm | - | 372 W/m² | - |
| 1777819344 | 18.33° C | 59% | 1017.6 hPa | 0 mm | - | 358 W/m² | - |
| 1777819040 | 18.33° C | 59% | 1017.5 hPa | 0 mm | - | 342 W/m² | - |
| 1777818738 | 17.78° C | 59% | 1017.3 hPa | 0 mm | - | 327 W/m² | - |
| 1777818434 | 17.78° C | 59% | 1017.4 hPa | 0 mm | - | 313 W/m² | - |
| 1777818131 | 17.78° C | 60% | 1017.3 hPa | 0 mm | - | 297 W/m² | - |
| 1777817828 | 17.78° C | 59% | 1017.3 hPa | 0 mm | - | 282 W/m² | - |
* Rain latest hour (hover to see other rain measurements)
** Current wind speed in m/s (hover to see current wind gust speed)